GSAT0202 (PRN E14)

Last updated on Oct. 31, 2020, 5:53 a.m. UTC

1 40129U 14050B   20304.41497630 -.00000103  00000-0  00000+0 0  9993
2 40129  50.5803 355.0327 1654691 104.6174 274.2643  1.85520154 42318
UTC
Height (km)
Latitude
Longitude
Inclination
Orbital Period
UTC large
Height (km)
Speed (km/s)
/
Latitude / Longitude
Inclination (degrees)
Orbital Period (minutes)
Azimuth
Elevation
Range (km)
Doppler Factor
iOS Compass Heading
iOS Angle

Next 30 passes for location: Hong Kong

Rise time Rise Azimuth (degrees) Set time Set Azimuth (degrees) Duration Max altitude (degrees)

No matching passes for this satellites